Regional Weather Roundup
Issued by NWS

Home | Current Version | Previous Version | Graphics & Text | Print | Product List | Glossary On
Versions: 1 2 3 4 5 6 7 8 9 10 11 12 13 14 15 16 17 18 19 20 21 22 23 24 25 26 27 28 29 30 31 32 33 34 35 36 37 38 39 40 41 42 43 44 45 46 47 48 49 50
000
ASUS43 KMPX 190110
RWRMN
WEATHER ROUNDUP FOR MINNESOTA
NATIONAL WEATHER SERVICE TWIN CITIES/CHANHASSEN MN
800 PM CDT WED APR 18 2018


NOTE: "FAIR" INDICATES FEW OR NO CLOUDS BELOW 12,000 FEET WITH NO
SIGNIFICANT WEATHER AND/OR OBSTRUCTIONS TO VISIBILITY. N/A MEANS
CURRENT SKY AND/OR WEATHER CONDITIONS ARE NOT AVAILABLE.

MNZ060>063-068>070-190200-
   Twin Cities Metro

CITY           SKY/WX    TMP DP  RH WIND       PRES   REMARKS
TWIN CITIES    CLOUDY    40  28  62 N10       30.09R
ST PAUL        FAIR      39  27  62 N6        30.10R
CRYSTAL        FAIR      41  23  48 N13       30.09R
BLAINE         MOCLDY    43  27  52 N10       30.09R
LAKEVILLE      FAIR      36  28  75 NW6       30.08R
EDEN PRAIRIE   FAIR      40  26  57 N6        30.08R
SOUTH ST PAUL  FAIR      39  27  61 N8        30.08R
LAKE ELMO      FAIR      41  25  52 N9G16     30.09R
$$
MNZ001>005-007-008-013>017-022>024-027-028-190200-
   Northwest Minnesota

CITY           SKY/WX    TMP DP  RH WIND       PRES   REMARKS
BEMIDJI        FAIR      41  16  36 NE9       30.17R
HALLOCK        FAIR      48  18  29 SE7       30.22R
ROSEAU         FAIR      45  21  39 E5        30.23R
WARROAD        FAIR      43  12  28 E3        30.23R
THIEF RVR FALL FAIR      45  18  34 NE7       30.21R
CROOKSTON      FAIR      43  30  61 N6        30.20R
FOSSTON        FAIR      43  16  33 NE6       30.19R
DETROIT LAKES  FAIR      45  23  42 CALM      30.17R
MOORHEAD       FAIR      46  30  53 NE5       30.19R
PARK RAPIDS    FAIR      45  16  31 NE5       30.15R
MAHNOMEN       FAIR      43  21  42 NE7       30.17R
$$
MNZ006-009>011-018-025>026-190200-
   North Central Minnesota

CITY           SKY/WX    TMP DP  RH WIND       PRES   REMARKS
BAUDETTE       FAIR      43  13  29 N7        30.20R
FLAG ISLAND    FAIR      41   9  26 N3        30.22R
INTL FALLS     FAIR      44  11  26 NE5       30.19R
WASKISH        FAIR      45  12  26 NE3       30.20R
BIG FORK       FAIR      45   9  23 N3        30.18R
LONGVILLE      FAIR      45  10  24 CALM      30.16R
GRAND RAPIDS   FAIR      45   8  22 N6        30.18R
CRANE LAKE     FAIR      41  12  30 CALM      30.20R
ORR            FAIR      41   7  24 CALM      30.16R
COOK             N/A     45  10  24 CALM      30.17R
WALKER         FAIR      42  12  29 NE5       30.17R
$$
MNZ012-019>021-037-190200-
   Northeast Minnesota

CITY           SKY/WX    TMP DP  RH WIND       PRES   REMARKS
DULUTH         FAIR      36  11  35 E9        30.15R
ELY            FAIR      43  12  28 NE3       30.16R
HIBBING        FAIR      42  12  29 N6        30.15R
EVELETH        FAIR      43  13  29 CALM      30.16R
DULUTH HARBOR  FAIR      34  25  69 N7        30.19R WCI  28
TWO HARBORS    FAIR      39  16  38 CALM      30.14R
SILVER BAY     FAIR      37  10  32 CALM      30.14R
GRAND MARAIS     N/A     35  22  58 W3        30.15R
G MARAIS ARPRT FAIR      37  10  32 N3        30.14R
$$
MNZ029>031-032-039>041-046>048-054>057-064-190200-
   West Central Minnesota

CITY           SKY/WX    TMP DP  RH WIND       PRES   REMARKS
FERGUS FALLS   FAIR      46  27  46 CALM      30.14R
WHEATON        CLOUDY    45  27  49 CALM      30.19R
MORRIS         CLOUDY    41  32  70 NE5       30.14R
ALEXANDRIA     FAIR      43  25  49 NE6       30.15R
ELBOW LAKE     FAIR      42  27  55 NE3       30.16R
WADENA         FAIR      43  19  39 NE7       30.15R
GLENWOOD       FAIR      39  27  60 N6        30.14R
APPLETON       MOCLDY    39  28  65 N9        30.14R
BENSON         MOCLDY    39  28  65 NE7       30.16R
ORTONVILLE     CLOUDY    39  30  70 CALM      30.16R
WILLMAR        FAIR      39  28  65 NE6       30.15R
$$
MNZ033>034-036-042>043-049>051-058-059-190200-
   Central Minnesota

CITY           SKY/WX    TMP DP  RH WIND       PRES   REMARKS
ST CLOUD       FAIR      41  13  31 NE6       30.13R
SAUK CENTRE    FAIR      42  23  47 NE6       30.14R
PAYNESVILLE    FAIR      41  25  53 NE3       30.14R
AITKIN         FAIR      41  12  30 N8        30.13R
PINE RIVER     FAIR      43  16  33 NE7       30.18R
BRAINERD       FAIR      45  15  30 N10       30.14R
STAPLES        FAIR      43  18  36 N3        30.15R
LONG PRAIRIE   FAIR      41  23  48 N7        30.14R
LITTLE FALLS   FAIR      43  12  28 CALM      30.14R
LITCHFIELD     FAIR      39  27  60 NE8       30.13R
BUFFALO        FAIR      39  21  48 N7        30.13R
MAPLE LAKE     FAIR      40  20  43 N9        30.14R
HUTCHINSON     FAIR      40  26  58 N8        30.13R
$$
MNZ037-044-045-052-053-190200-
   East Central Minnesota

CITY           SKY/WX    TMP DP  RH WIND       PRES   REMARKS
PRINCETON      FAIR      41  14  33 N6        30.13R
MORA           FAIR      37  10  32 NE10G16   30.15R
RUSH CITY      FAIR      41   9  27 NE8       30.12R
MOOSE LAKE     FAIR      36  16  44 NE10G17   30.14R
HINCKLEY       FAIR      39  18  41 N12G20    30.13R
CLOQUET        FAIR      37   7  28 E3        30.16R
MCGREGOR       FAIR      39  18  41 E5        30.16R
$$
MNZ071>073-080-081-089-090-097-098-190200-
   Southwest Minnesota

CITY           SKY/WX    TMP DP  RH WIND       PRES   REMARKS
MONTEVIDEO     PTCLDY    37  27  65 N5        30.14R
GRANITE FALLS  MOCLDY    35  30  84 W8        30.15R WCI  28
CANBY          CLOUDY    38  31  73 W7        30.16R
MARSHALL       CLOUDY    33  28  81 W9        30.14R WCI  25
REDWOOD FALLS  CLOUDY    35  28  75 W7        30.13R WCI  29
OLIVIA         MOCLDY    39  32  75 NE3       30.13R
PIPESTONE      PTCLDY   N/A N/A N/A NW7       30.14R
WINDOM           N/A     32  19  59 CALM      30.13R
WORTHINGTON    MIX PCPN  32  30  92 W10       30.14R WCI  24
JACKSON        MIX PCPN  32  30  93 NW9       30.12R WCI  24
TRACY          CLOUDY    34  29  82 W5        30.13R WCI  30
SLAYTON        CLOUDY    33  29  86 W9        30.13R WCI  25
$$
MNZ065>067-074>077-082>085-091>093-190200-
   South Central Minnesota

CITY           SKY/WX    TMP DP  RH WIND       PRES   REMARKS
MANKATO        MOCLDY    32  31  96 W6        30.11R WCI  26
NEW ULM        CLOUDY    34  27  75 NW7       30.12R WCI  28
ST JAMES       FLURRIES  32  30  93 W5        30.13R WCI  27
FAIRMONT       FLURRIES  31  29  92 NW12      30.12R WCI  22
GLENCOE        FAIR      38  29  71 N7        30.11R
OWATONNA       FAIR      32  30  93 NW5       30.08R WCI  27
WASECA         FLURRIES  32  30  93 NW8       30.10R WCI  25
ALBERT LEA     CLOUDY    30  28  93 NW7       30.08R FOG     WCI  23
$$
MNZ078>079-086>088-094>096-190200-
   Southeast Minnesota

CITY           SKY/WX    TMP DP  RH WIND       PRES   REMARKS
ROCHESTER      LGT SNOW  31  30  96 NW10      30.05R FOG     WCI  22
RED WING       FAIR      39  25  56 N6        30.06R
STANTON        FAIR      33  31  89 W3        30.06R
DODGE CENTER   LGT SNOW  30  30 100 NW5       30.06R WCI  25
WINONA         LGT SNOW  34  34 100 CALM      30.03R
AUSTIN         LGT SNOW  30  28  93 NW9       30.06R WCI  22
PRESTON        LGT SNOW  30  29  94 NW9       30.04R WCI  22
$$
ABBREVIATIONS USED IN REMARKS
   TC - TEMPERATURES IN CELSIUS
  WCI - WIND CHILL INDEX
   HX - HEAT INDEX
  VSB - VISIBILITY
$$




USA.gov is the U.S. government's official web portal to all federal, state and local government web resources and services.